FW6216 Weather Reports


Display with metric or nautical units.
time (UTC)temp
F
wind
direction
speed
MPH
gust
MPH
rain 1hr
in
rain 24hr
in
rain mn
in
humidity
%
barometer
mb
20260903213033 64 144 7.0 14.0 0.00 0.03 0.00 49 1012.3
20260903211532 65 149 4.0 12.0 0.00 0.03 0.00 48 1012.2
20260903210031 65 169 6.0 13.0 0.00 0.03 0.00 50 1012.3
20260903204530 64 163 7.0 12.0 0.00 0.03 0.00 49 1012.5
20260903201535 66 186 8.0 17.0 0.00 0.03 0.00 50 1012.6
20260903200030 65 176 8.0 17.0 0.00 0.03 0.00 53 1012.9
20260903194529 63 183 9.0 19.0 0.00 0.03 0.00 55 1013.1
20260903193030 61 179 8.0 18.0 0.00 0.03 0.00 57 1013.3
20260903184607 58 184 8.0 15.0 0.00 0.03 0.00 64 1013.9
20260903183142 58 185 8.0 14.0 0.00 0.03 0.00 64 1013.9
20260903180028 57 181 8.0 15.0 0.00 0.03 0.00 64 1013.8
20260903174531 57 190 7.0 13.0 0.00 0.03 0.00 66 1013.7
20260903170032 56 165 5.0 10.0 0.00 0.03 0.00 70 1013.8
20260903164605 55 178 6.0 12.0 0.00 0.03 0.00 71 1014.0
20260903163031 55 185 7.0 15.0 0.00 0.03 0.00 70 1013.8
20260903160106 54 198 6.0 13.0 0.00 0.03 0.00 74 1013.9
20260903154535 53 185 6.0 12.0 0.00 0.03 0.00 76 1013.9
20260903153035 52 181 7.0 12.0 0.00 0.03 0.00 77 1013.8
20260903151534 51 176 6.0 12.0 0.00 0.03 0.00 79 1013.9
20260903150036 51 158 5.0 10.0 0.00 0.03 0.00 80 1013.9
20260903144606 51 156 4.0 8.0 0.00 0.03 0.00 81 1014.0
20260903143106 49 196 5.0 11.0 0.00 0.03 0.00 83 1013.8
20260903141534 48 216 4.0 6.0 0.00 0.03 0.00 84 1013.8
20260903140037 48 232 3.0 4.0 0.00 0.03 0.00 84 1013.7
20260903133036 47 221 3.0 6.0 0.00 0.03 0.00 86 1013.7
20260903130029 45 243 1.0 3.0 0.00 0.03 0.00 85 1013.5
20260903124530 45 326 0.0 3.0 0.00 0.03 0.00 83 1013.5
20260903123032 47 6 0.0 4.0 0.00 0.03 0.00 82 1013.4
20260903121534 47 272 2.0 5.0 0.00 0.03 0.00 82 1013.4
20260903120135 47 222 2.0 7.0 0.00 0.03 0.00 82 1013.3
20260903114531 47 232 4.0 8.0 0.00 0.03 0.00 82 1013.3
20260903113034 48 224 6.0 13.0 0.00 0.03 0.00 83 1013.3
20260903111531 46 221 7.0 13.0 0.00 0.03 0.00 85 1013.3
20260903110142 45 218 6.0 11.0 0.00 0.03 0.00 87 1013.1
20260903104532 45 234 4.0 7.0 0.00 0.03 0.00 87 1013.1
20260903103035 45 269 1.0 5.0 0.00 0.03 0.00 87 1013.0
20260903101535 45 230 1.0 5.0 0.00 0.03 0.00 86 1013.0
20260903100031 46 238 1.0 6.0 0.00 0.03 0.00 85 1013.0
20260903094529 48 304 1.0 6.0 0.00 0.03 0.00 85 1012.8
20260903091535 48 183 9.0 14.0 0.00 0.03 0.00 87 1012.7
20260903090031 47 191 8.0 15.0 0.00 0.03 0.00 89 1012.7
20260903084652 46 194 6.0 13.0 0.00 0.03 0.00 91 1012.6
20260903083030 46 184 5.0 9.0 0.00 0.03 0.00 92 1012.6
20260903081531 47 225 2.0 4.0 0.00 0.03 0.00 92 1012.8
20260903080029 48 213 4.0 7.0 0.00 0.03 0.00 93 1012.9
20260903074532 48 200 4.0 8.0 0.00 0.03 0.00 93 1012.8
20260903073105 48 214 2.0 4.0 0.00 0.03 0.00 93 1012.5
20260903071606 49 188 2.0 5.0 0.00 0.03 0.00 93 1012.4
20260903070034 48 245 1.0 5.0 0.00 0.03 0.00 92 1012.3
20260903064535 49 211 3.0 6.0 0.00 0.03 0.03 92 1012.2
20260903063028 49 176 3.0 6.0 0.00 0.03 0.03 92 1012.2
20260903061531 49 224 2.0 5.0 0.00 0.03 0.03 91 1012.4
20260903054531 50 91 0.0 5.0 0.00 0.03 0.03 90 1012.3
20260903053032 50 103 1.0 5.0 0.00 0.03 0.03 90 1012.5
20260903051533 51 67 0.0 0.0 0.00 0.03 0.03 90 1012.3
20260903044530 52 68 1.0 5.0 0.00 0.03 0.03 89 1011.9
20260903043032 52 87 0.0 6.0 0.01 0.03 0.03 88 1011.8
20260903041530 52 90 0.0 2.0 0.02 0.03 0.03 87 1011.8
20260903040029 52 295 0.0 3.0 0.02 0.03 0.03 86 1011.5
20260903031536 56 267 5.0 14.0 0.00 0.01 0.01 81 1011.1
20260903030031 57 233 5.0 14.0 0.00 0.01 0.01 82 1010.6
20260903024533 57 183 6.0 11.0 0.00 0.01 0.01 83 1010.3
20260903023028 57 199 6.0 14.0 0.00 0.01 0.01 83 1010.3
20260903021533 57 202 4.0 11.0 0.00 0.01 0.01 83 1010.1
20260903020033 57 181 5.0 10.0 0.00 0.01 0.01 84 1010.1
20260903014530 57 177 5.0 9.0 0.00 0.01 0.01 84 1010.1
20260903011531 57 185 5.0 9.0 0.00 0.01 0.01 82 1010.4
20260903010037 57 199 4.0 7.0 0.00 0.01 0.01 81 1010.5
20260903004537 58 187 5.0 10.0 0.00 0.01 0.01 80 1010.6
20260903003037 58 188 6.0 12.0 0.00 0.01 0.01 80 1010.5
20260903001529 58 187 6.0 12.0 0.00 0.01 0.01 80 1010.5
20260902234530 59 185 8.0 18.0 0.00 0.01 0.01 75 1010.6
20260902233031 59 193 9.0 19.0 0.01 0.01 0.01 75 1010.6
20260902231531 59 192 9.0 19.0 0.01 0.01 0.01 75 1010.5
20260902230038 59 187 8.0 18.0 0.01 0.01 0.01 77 1010.5
20260902221607 60 205 5.0 12.0 0.00 0.00 0.00 78 1010.4
20260902220109 58 200 4.0 9.0 0.00 0.00 0.00 81 1010.5